Regional Weather Roundup
Issued by NWS

Home | Current Version | Previous Version | Graphics & Text | Print | Product List | Glossary Off
Versions: 1 2 3 4 5 6 7 8 9 10 11 12 13 14 15 16 17 18 19 20 21 22 23 24 25 26 27 28 29 30 31 32 33 34 35 36 37 38 39 40 41 42 43 44 45 46 47 48 49 50

000
ASUS43 KTOP 231759
RWRKS

WEATHER ROUNDUP FOR KANSAS
NATIONAL WEATHER SERVICE GOODLAND KS
100 PM CDT SAT SEP 23 2017

NOTE:  "FAIR" INDICATES FEW OR NO CLOUDS BELOW 12,000 FEET WITH NO
SIGNIFICANT WEATHER AND/OR OBSTRUCTIONS TO VISIBILITY.

KSZ001>006-013>018-027>032-041>047-231900-
NORTHWEST KANSAS

CITY           SKY/WX    TMP DP  RH WIND       PRES   REMARKS
GOODLAND       CLOUDY    57  49  74 W21G29    29.99R
6HR MIN TEMP:  56; 6HR MAX TEMP:  67;

HAYS           MOSUNNY   89  66  46 S21G31    29.89F
HILL CITY      PTSUNNY   88  65  46 S12G25    29.89F
6HR MIN TEMP:  72; 6HR MAX TEMP:  89;

RUSSELL        MOSUNNY   90  64  42 S22G29    29.90F
6HR MIN TEMP:  72; 6HR MAX TEMP:  90;

$$

KSZ061>065-074>080-084>089-231900-
SOUTHWEST KANSAS

CITY           SKY/WX    TMP DP  RH WIND       PRES   REMARKS
DODGE CITY     SUNNY     87  63  44 S23G32    29.92F
6HR MIN TEMP:  69; 6HR MAX TEMP:  89;

ELKHART          N/A    N/A N/A N/A MISG        N/A
GARDEN CITY    SUNNY     86  63  45 S23G32    29.90F
6HR MIN TEMP:  66; 6HR MAX TEMP:  86;

GREAT BEND     SUNNY     88  66  48 S18G28    29.92F
LIBERAL        PTSUNNY   84  66  54 S21G29    29.92F
$$

KSZ066>073-081>083-090>101-231900-
SOUTHEAST KANSAS

CITY           SKY/WX    TMP DP  RH WIND       PRES   REMARKS
CHANUTE        SUNNY     87  67  51 S16       30.02F
6HR MIN TEMP:  68; 6HR MAX TEMP:  87;

COFFEYVILLE    SUNNY     88  69  53 S13G18    30.00F
6HR MIN TEMP:  67; 6HR MAX TEMP:  88;

HUTCHINSON     SUNNY     89  66  46 S23G31    29.95F
6HR MIN TEMP:  69; 6HR MAX TEMP:  89;

MEDICINE LODGE   N/A     87  63  44 S20G26    29.92F
NEWTON         MOSUNNY   86  65  49 S17G26    29.98F
PARSONS        MOSUNNY   87  66  49 S12       30.02F
6HR MIN TEMP:  67; 6HR MAX TEMP:  88;

WICHITA INTL   MOSUNNY   88  66  48 S21       29.96F
6HR MIN TEMP:  69; 6HR MAX TEMP:  88;

WICHITA JABRA  MOSUNNY   86  67  52 S20G25    29.97F
6HR MIN TEMP:  68; 6HR MAX TEMP:  86;

WINFIELD       SUNNY     88  66  48 S15G23    29.99F
6HR MIN TEMP:  69; 6HR MAX TEMP:  88;

$$

KSZ007>012-019>026-033>040-048>060-102>105-231900-
NORTHEAST KANSAS

CITY           SKY/WX    TMP DP  RH WIND       PRES   REMARKS
CONCORDIA      SUNNY     87  68  52 S17G25    29.94S
6HR MIN TEMP:  70; 6HR MAX TEMP:  87;

EMPORIA        MOSUNNY   85  66  53 S13G23    30.00F
6HR MIN TEMP:  67; 6HR MAX TEMP:  86;

LAWRENCE       SUNNY     88  69  53 SE13      30.01F
6HR MIN TEMP:  68; 6HR MAX TEMP:  88;

MANHATTAN      MOSUNNY   91  66  43 S14G28    29.96F
6HR MIN TEMP:  71; 6HR MAX TEMP:  92;

OLATHE IND     MOSUNNY   86  69  56 S14       30.03F
6HR MIN TEMP:  68; 6HR MAX TEMP:  86;

OLATHE EXE     MOSUNNY   85  70  60 S7        30.03F
6HR MIN TEMP:  67; 6HR MAX TEMP:  85;

SALINA         SUNNY     93  63  36 S16G30    29.93F
6HR MIN TEMP:  74; 6HR MAX TEMP:  93;

TOPEKA BILLARD SUNNY     88  69  53 S12       29.99F
6HR MIN TEMP:  67; 6HR MAX TEMP:  88; 6HR PCP: TRACE;

TOPEKA FORBES  SUNNY     88  67  49 S12G21    30.00F
6HR MIN TEMP:  69; 6HR MAX TEMP:  89;

$$




USA.gov is the U.S. government's official web portal to all federal, state and local government web resources and services.